| time (UTC) | temp C | wind direction | speed KPH | gust KPH | rain 1hr cm | rain 24hr cm | rain mn cm | humidity % | barometer mb |
| 20260508105008 | 4 | 274 | 0.0 | 0.0 | 0.00 | 0.00 | 0.00 | 93 | 1018.1 |
| 20260508104505 | 5 | 273 | 0.0 | 0.0 | 0.00 | 0.00 | 0.00 | 93 | 1017.9 |
| 20260508104001 | 5 | 274 | 0.0 | 0.0 | 0.00 | 0.00 | 0.00 | 92 | 1018.0 |
| 20260508103458 | 5 | 274 | 1.6 | 1.6 | 0.00 | 0.00 | 0.00 | 92 | 1017.9 |
| 20260508102955 | 5 | 274 | 0.0 | 1.6 | 0.00 | 0.00 | 0.00 | 92 | 1017.4 |
| 20260508102454 | 5 | 274 | 0.0 | 0.0 | 0.00 | 0.00 | 0.00 | 92 | 1017.2 |
| 20260508101950 | 5 | 275 | 0.0 | 0.0 | 0.00 | 0.00 | 0.00 | 92 | 1016.9 |
| 20260508101448 | 6 | 252 | 0.0 | 0.0 | 0.00 | 0.00 | 0.00 | 92 | 1017.3 |
| 20260508100945 | 5 | 251 | 0.0 | 0.0 | 0.00 | 0.00 | 0.00 | 91 | 1017.0 |
| 20260508100444 | 5 | 257 | 0.0 | 0.0 | 0.00 | 0.00 | 0.00 | 91 | 1017.2 |
| 20260508095939 | 5 | 256 | 0.0 | 1.6 | 0.00 | 0.00 | 0.00 | 91 | 1016.9 |
| 20260508095437 | 5 | 272 | 0.0 | 0.0 | 0.00 | 0.00 | 0.00 | 91 | 1016.9 |
| 20260508094934 | 5 | 272 | 0.0 | 0.0 | 0.00 | 0.00 | 0.00 | 90 | 1016.9 |
| 20260508094431 | 5 | 272 | 0.0 | 0.0 | 0.00 | 0.00 | 0.00 | 90 | 1017.0 |
| 20260508093927 | 5 | 272 | 0.0 | 0.0 | 0.00 | 0.00 | 0.00 | 90 | 1016.9 |
| 20260508093425 | 6 | 272 | 0.0 | 0.0 | 0.00 | 0.00 | 0.00 | 90 | 1017.0 |
| 20260508092922 | 6 | 272 | 0.0 | 0.0 | 0.00 | 0.00 | 0.00 | 89 | 1017.2 |
| 20260508092420 | 6 | 263 | 0.0 | 0.0 | 0.00 | 0.00 | 0.00 | 89 | 1017.5 |
| 20260508091918 | 6 | 263 | 0.0 | 0.0 | 0.00 | 0.00 | 0.00 | 89 | 1017.4 |
| 20260508091415 | 6 | 263 | 0.0 | 0.0 | 0.00 | 0.00 | 0.00 | 89 | 1017.4 |
| 20260508090912 | 6 | 263 | 0.0 | 0.0 | 0.00 | 0.00 | 0.00 | 88 | 1017.5 |
| 20260508090411 | 6 | 263 | 0.0 | 0.0 | 0.00 | 0.00 | 0.00 | 88 | 1017.6 |
| 20260508085906 | 6 | 265 | 0.0 | 0.0 | 0.00 | 0.00 | 0.00 | 88 | 1017.6 |
| 20260508085403 | 6 | 265 | 0.0 | 0.0 | 0.00 | 0.00 | 0.00 | 87 | 1017.6 |
| 20260508084859 | 6 | 265 | 0.0 | 0.0 | 0.00 | 0.00 | 0.00 | 87 | 1017.4 |
| 20260508084356 | 6 | 263 | 0.0 | 0.0 | 0.00 | 0.00 | 0.00 | 86 | 1017.7 |
| 20260508083854 | 7 | 281 | 0.0 | 0.0 | 0.00 | 0.00 | 0.00 | 85 | 1017.5 |
| 20260508083352 | 7 | 282 | 0.0 | 1.6 | 0.00 | 0.00 | 0.00 | 85 | 1017.6 |
| 20260508082850 | 7 | 282 | 0.0 | 0.0 | 0.00 | 0.00 | 0.00 | 85 | 1017.7 |
| 20260508082349 | 7 | 284 | 0.0 | 0.0 | 0.00 | 0.00 | 0.00 | 85 | 1017.7 |
| 20260508081846 | 7 | 281 | 0.0 | 0.0 | 0.00 | 0.00 | 0.00 | 84 | 1017.6 |
| 20260508081342 | 7 | 281 | 0.0 | 0.0 | 0.00 | 0.00 | 0.00 | 84 | 1018.0 |
| 20260508080839 | 7 | 281 | 0.0 | 0.0 | 0.00 | 0.00 | 0.00 | 83 | 1017.9 |
| 20260508080337 | 7 | 281 | 0.0 | 0.0 | 0.00 | 0.00 | 0.00 | 82 | 1018.0 |
| 20260508075834 | 7 | 281 | 0.0 | 0.0 | 0.00 | 0.00 | 0.00 | 82 | 1018.0 |
| 20260508075331 | 7 | 282 | 0.0 | 0.0 | 0.00 | 0.00 | 0.00 | 82 | 1017.9 |
| 20260508074829 | 8 | 281 | 0.0 | 0.0 | 0.00 | 0.00 | 0.00 | 81 | 1018.0 |
| 20260508074326 | 8 | 274 | 0.0 | 0.0 | 0.00 | 0.00 | 0.00 | 80 | 1017.9 |
| 20260508073823 | 8 | 267 | 1.6 | 1.6 | 0.00 | 0.00 | 0.00 | 79 | 1018.0 |
| 20260508073321 | 8 | 246 | 1.6 | 1.6 | 0.00 | 0.00 | 0.00 | 79 | 1017.6 |
| 20260508072817 | 8 | 249 | 0.0 | 0.0 | 0.00 | 0.00 | 0.00 | 78 | 1017.9 |
| 20260508072313 | 8 | 253 | 0.0 | 0.0 | 0.00 | 0.00 | 0.00 | 78 | 1017.9 |
| 20260508071811 | 9 | 254 | 0.0 | 0.0 | 0.00 | 0.00 | 0.00 | 77 | 1017.9 |
| 20260508071309 | 9 | 257 | 0.0 | 0.0 | 0.00 | 0.00 | 0.00 | 76 | 1017.7 |
| 20260508070806 | 9 | 258 | 0.0 | 0.0 | 0.00 | 0.00 | 0.00 | 76 | 1017.6 |
| 20260508070305 | 9 | 290 | 0.0 | 0.0 | 0.00 | 0.00 | 0.00 | 75 | 1017.7 |
| 20260508065801 | 10 | 278 | 0.0 | 0.0 | 0.00 | 0.00 | 0.00 | 74 | 1017.6 |
| 20260508065259 | 10 | 272 | 0.0 | 1.6 | 0.00 | 0.00 | 0.00 | 72 | 1017.5 |
| 20260508064757 | 10 | 265 | 0.0 | 0.0 | 0.00 | 0.00 | 0.00 | 71 | 1017.5 |
| 20260508064255 | 10 | 227 | 1.6 | 1.6 | 0.00 | 0.00 | 0.00 | 70 | 1017.4 |
| 20260508063752 | 10 | 275 | 0.0 | 0.0 | 0.00 | 0.00 | 0.00 | 69 | 1017.5 |
| 20260508063250 | 10 | 271 | 1.6 | 1.6 | 0.00 | 0.00 | 0.00 | 68 | 1017.9 |
| 20260508062747 | 11 | 281 | 0.0 | 0.0 | 0.00 | 0.00 | 0.00 | 66 | 1018.2 |
| 20260508062245 | 11 | 286 | 0.0 | 0.0 | 0.00 | 0.00 | 0.00 | 66 | 1018.2 |
| 20260508061741 | 11 | 287 | 1.6 | 3.2 | 0.00 | 0.00 | 0.00 | 65 | 1018.6 |
| 20260508061238 | 11 | 248 | 4.8 | 8.0 | 0.00 | 0.00 | 0.00 | 65 | 1018.7 |
| 20260508060735 | 11 | 258 | 1.6 | 3.2 | 0.00 | 0.00 | 0.00 | 65 | 1018.2 |
| 20260508060233 | 11 | 273 | 0.0 | 0.0 | 0.00 | 0.00 | 0.00 | 65 | 1017.5 |
| 20260508055728 | 11 | 275 | 0.0 | 0.0 | 0.00 | 0.00 | 0.00 | 66 | 1017.4 |
| 20260508055225 | 11 | 289 | 1.6 | 3.2 | 0.00 | 0.00 | 0.00 | 65 | 1017.3 |
| 20260508054721 | 11 | 277 | 0.0 | 0.0 | 0.00 | 0.00 | 0.00 | 65 | 1017.3 |
| 20260508054219 | 11 | 233 | 1.6 | 3.2 | 0.00 | 0.00 | 0.00 | 65 | 1017.0 |
| 20260508053716 | 11 | 281 | 1.6 | 1.6 | 0.00 | 0.00 | 0.00 | 64 | 1017.2 |
| 20260508053214 | 11 | 264 | 0.0 | 0.0 | 0.00 | 0.00 | 0.00 | 65 | 1017.3 |
| 20260508052710 | 11 | 271 | 0.0 | 0.0 | 0.00 | 0.00 | 0.00 | 64 | 1017.2 |
| 20260508052207 | 11 | 274 | 1.6 | 1.6 | 0.00 | 0.00 | 0.00 | 64 | 1017.3 |
| 20260508051704 | 11 | 262 | 0.0 | 1.6 | 0.00 | 0.00 | 0.00 | 64 | 1017.0 |
| 20260508051159 | 11 | 284 | 1.6 | 1.6 | 0.00 | 0.00 | 0.00 | 64 | 1016.9 |
| 20260508050655 | 11 | 268 | 1.6 | 1.6 | 0.00 | 0.00 | 0.00 | 63 | 1017.2 |
| 20260508050153 | 11 | 289 | 0.0 | 1.6 | 0.00 | 0.00 | 0.00 | 63 | 1017.5 |
| 20260508045648 | 11 | 301 | 3.2 | 3.2 | 0.00 | 0.00 | 0.00 | 62 | 1017.7 |
| 20260508045147 | 11 | 287 | 1.6 | 1.6 | 0.00 | 0.00 | 0.00 | 62 | 1017.9 |
| 20260508044644 | 12 | 274 | 3.2 | 4.8 | 0.00 | 0.00 | 0.00 | 61 | 1017.9 |
| 20260508044140 | 12 | 282 | 3.2 | 3.2 | 0.00 | 0.00 | 0.00 | 60 | 1017.4 |
| 20260508043636 | 12 | 299 | 1.6 | 1.6 | 0.00 | 0.00 | 0.00 | 59 | 1017.0 |
| 20260508043134 | 12 | 256 | 0.0 | 0.0 | 0.00 | 0.00 | 0.00 | 59 | 1017.0 |
| 20260508042631 | 12 | 275 | 0.0 | 0.0 | 0.00 | 0.00 | 0.00 | 59 | 1016.8 |
| 20260508042128 | 12 | 280 | 0.0 | 0.0 | 0.00 | 0.00 | 0.00 | 58 | 1016.9 |
| 20260508041624 | 12 | 259 | 0.0 | 1.6 | 0.00 | 0.00 | 0.00 | 58 | 1016.6 |
| 20260508041121 | 12 | 233 | 4.8 | 9.7 | 0.00 | 0.00 | 0.00 | 56 | 1016.7 |
| 20260508040618 | 13 | 281 | 3.2 | 3.2 | 0.00 | 0.00 | 0.00 | 55 | 1016.7 |
| 20260508040116 | 13 | 284 | 1.6 | 1.6 | 0.00 | 0.00 | 0.00 | 53 | 1016.9 |
| 20260508035612 | 14 | 276 | 1.6 | 1.6 | 0.00 | 0.00 | 0.00 | 49 | 1016.8 |
| 20260508035110 | 14 | 296 | 1.6 | 1.6 | 0.00 | 0.00 | 0.00 | 43 | 1016.9 |
| 20260508034606 | 14 | 286 | 0.0 | 0.0 | 0.00 | 0.00 | 0.00 | 44 | 1016.8 |
| 20260508034103 | 14 | 272 | 1.6 | 1.6 | 0.00 | 0.00 | 0.00 | 43 | 1016.6 |
| 20260508033601 | 14 | 264 | 1.6 | 1.6 | 0.00 | 0.00 | 0.00 | 44 | 1016.9 |
| 20260508033059 | 14 | 281 | 0.0 | 0.0 | 0.00 | 0.00 | 0.00 | 44 | 1016.9 |
| 20260508032555 | 14 | 281 | 0.0 | 0.0 | 0.00 | 0.00 | 0.00 | 43 | 1016.7 |
| 20260508032053 | 14 | 281 | 0.0 | 0.0 | 0.00 | 0.00 | 0.00 | 43 | 1016.7 |
| 20260508031550 | 14 | 283 | 0.0 | 0.0 | 0.00 | 0.00 | 0.00 | 43 | 1016.4 |
| 20260508031045 | 15 | 283 | 0.0 | 0.0 | 0.00 | 0.00 | 0.00 | 42 | 1016.4 |
| 20260508030542 | 15 | 288 | 1.6 | 1.6 | 0.00 | 0.00 | 0.00 | 41 | 1016.3 |
| 20260508030041 | 15 | 263 | 0.0 | 0.0 | 0.00 | 0.00 | 0.00 | 42 | 1016.8 |
| 20260508025536 | 15 | 263 | 0.0 | 0.0 | 0.00 | 0.00 | 0.00 | 41 | 1016.6 |
| 20260508025033 | 15 | 280 | 0.0 | 0.0 | 0.00 | 0.00 | 0.00 | 40 | 1016.2 |
| 20260508024529 | 15 | 284 | 0.0 | 0.0 | 0.00 | 0.00 | 0.00 | 40 | 1016.6 |
| 20260508024026 | 15 | 263 | 0.0 | 0.0 | 0.00 | 0.00 | 0.00 | 40 | 1016.2 |
| 20260508023523 | 15 | 263 | 0.0 | 0.0 | 0.00 | 0.00 | 0.00 | 40 | 1016.0 |
| 20260508023021 | 15 | 284 | 0.0 | 0.0 | 0.00 | 0.00 | 0.00 | 39 | 1016.1 |
| 20260508022516 | 15 | 284 | 3.2 | 3.2 | 0.00 | 0.00 | 0.00 | 38 | 1015.9 |
| 20260508022013 | 15 | 275 | 3.2 | 3.2 | 0.00 | 0.00 | 0.00 | 38 | 1016.0 |
| 20260508021509 | 16 | 274 | 4.8 | 8.0 | 0.00 | 0.00 | 0.00 | 39 | 1016.1 |
| 20260508021005 | 16 | 278 | 1.6 | 1.6 | 0.00 | 0.00 | 0.00 | 39 | 1016.4 |
| 20260508020503 | 16 | 300 | 6.4 | 8.0 | 0.00 | 0.00 | 0.00 | 35 | 1016.0 |
| 20260508020000 | 16 | 287 | 1.6 | 3.2 | 0.00 | 0.00 | 0.00 | 36 | 1015.9 |
| 20260508015458 | 16 | 256 | 8.0 | 9.7 | 0.00 | 0.00 | 0.00 | 38 | 1016.2 |
| 20260508014954 | 16 | 280 | 9.7 | 12.9 | 0.00 | 0.00 | 0.00 | 37 | 1015.7 |
| 20260508014451 | 17 | 249 | 17.7 | 27.4 | 0.00 | 0.00 | 0.00 | 35 | 1015.6 |
| 20260508013947 | 17 | 248 | 0.0 | 0.0 | 0.00 | 0.00 | 0.00 | 32 | 1015.0 |
| 20260508013443 | 17 | 248 | 0.0 | 0.0 | 0.00 | 0.00 | 0.00 | 29 | 1015.1 |
| 20260508012941 | 17 | 248 | 0.0 | 0.0 | 0.00 | 0.00 | 0.00 | 29 | 1015.0 |
| 20260508012437 | 18 | 248 | 0.0 | 0.0 | 0.00 | 0.00 | 0.00 | 28 | 1014.7 |
| 20260508011935 | 18 | 248 | 0.0 | 0.0 | 0.00 | 0.00 | 0.00 | 27 | 1014.5 |
| 20260508011434 | 18 | 248 | 0.0 | 1.6 | 0.00 | 0.00 | 0.00 | 27 | 1014.5 |
| 20260508010930 | 18 | 248 | 0.0 | 0.0 | 0.00 | 0.00 | 0.00 | 27 | 1014.5 |
| 20260508010427 | 18 | 248 | 0.0 | 0.0 | 0.00 | 0.00 | 0.00 | 29 | 1014.7 |
| 20260508005924 | 18 | 242 | 1.6 | 1.6 | 0.00 | 0.00 | 0.00 | 26 | 1014.5 |
| 20260508005421 | 18 | 249 | 0.0 | 0.0 | 0.00 | 0.00 | 0.00 | 28 | 1014.9 |
| 20260508004917 | 18 | 236 | 3.2 | 3.2 | 0.00 | 0.00 | 0.00 | 26 | 1014.8 |
| 20260508004413 | 18 | 246 | 1.6 | 1.6 | 0.00 | 0.00 | 0.00 | 26 | 1014.4 |
| 20260508003910 | 18 | 250 | 0.0 | 0.0 | 0.00 | 0.00 | 0.00 | 26 | 1014.8 |
| 20260508003407 | 18 | 218 | 3.2 | 3.2 | 0.00 | 0.00 | 0.00 | 26 | 1014.7 |
| 20260508002904 | 18 | 198 | 6.4 | 8.0 | 0.00 | 0.00 | 0.00 | 25 | 1014.8 |
| 20260508002400 | 18 | 229 | 1.6 | 3.2 | 0.00 | 0.00 | 0.00 | 25 | 1014.5 |
| 20260508001856 | 18 | 209 | 3.2 | 3.2 | 0.00 | 0.00 | 0.00 | 26 | 1014.4 |
| 20260508001353 | 19 | 295 | 3.2 | 4.8 | 0.00 | 0.00 | 0.00 | 26 | 1014.7 |
| 20260508000849 | 19 | 228 | 1.6 | 1.6 | 0.00 | 0.00 | 0.00 | 25 | 1014.3 |
| 20260508000346 | 20 | 240 | 1.6 | 1.6 | 0.00 | 0.00 | 0.00 | 24 | 1014.7 |
| 20260507235842 | 20 | 194 | 4.8 | 4.8 | 0.00 | 0.00 | 0.00 | 23 | 1014.7 |
| 20260507235340 | 20 | 237 | 3.2 | 3.2 | 0.00 | 0.00 | 0.00 | 25 | 1014.3 |
| 20260507234837 | 20 | 239 | 3.2 | 3.2 | 0.00 | 0.00 | 0.00 | 25 | 1014.5 |
| 20260507234333 | 20 | 234 | 0.0 | 1.6 | 0.00 | 0.00 | 0.00 | 26 | 1014.5 |
| 20260507233830 | 20 | 241 | 0.0 | 1.6 | 0.00 | 0.00 | 0.00 | 27 | 1014.5 |
| 20260507233327 | 20 | 199 | 4.8 | 4.8 | 0.00 | 0.00 | 0.00 | 25 | 1014.9 |
| 20260507232826 | 20 | 250 | 6.4 | 9.7 | 0.00 | 0.00 | 0.00 | 25 | 1014.8 |
| 20260507232321 | 20 | 247 | 3.2 | 3.2 | 0.00 | 0.00 | 0.00 | 24 | 1014.7 |
| 20260507231819 | 21 | 246 | 0.0 | 1.6 | 0.00 | 0.00 | 0.00 | 25 | 1014.7 |
| 20260507231315 | 20 | 256 | 4.8 | 4.8 | 0.00 | 0.00 | 0.00 | 25 | 1014.9 |
| 20260507230812 | 20 | 207 | 6.4 | 9.7 | 0.00 | 0.00 | 0.00 | 24 | 1014.9 |
| 20260507230309 | 20 | 253 | 1.6 | 1.6 | 0.00 | 0.00 | 0.00 | 25 | 1014.9 |
| 20260507225809 | 20 | 257 | 4.8 | 11.3 | 0.00 | 0.00 | 0.00 | 24 | 1014.7 |
| 20260507225306 | 20 | 226 | 8.0 | 11.3 | 0.00 | 0.00 | 0.00 | 23 | 1014.9 |
| 20260507224802 | 20 | 200 | 6.4 | 9.7 | 0.00 | 0.00 | 0.00 | 25 | 1014.8 |
| 20260507224258 | 20 | 214 | 4.8 | 8.0 | 0.00 | 0.00 | 0.00 | 24 | 1014.4 |
| 20260507223754 | 20 | 203 | 6.4 | 9.7 | 0.00 | 0.00 | 0.00 | 25 | 1015.0 |
| 20260507223251 | 19 | 203 | 4.8 | 4.8 | 0.00 | 0.00 | 0.00 | 26 | 1014.9 |
| 20260507222749 | 20 | 269 | 11.3 | 17.7 | 0.00 | 0.00 | 0.00 | 26 | 1014.9 |
| 20260507222244 | 20 | 246 | 3.2 | 4.8 | 0.00 | 0.00 | 0.00 | 24 | 1015.0 |
| 20260507221742 | 20 | 228 | 4.8 | 4.8 | 0.00 | 0.00 | 0.00 | 25 | 1015.0 |
| 20260507221238 | 20 | 253 | 1.6 | 1.6 | 0.00 | 0.00 | 0.00 | 26 | 1015.3 |
| 20260507220734 | 20 | 201 | 8.0 | 9.7 | 0.00 | 0.00 | 0.00 | 25 | 1015.3 |
| 20260507220233 | 20 | 204 | 6.4 | 9.7 | 0.00 | 0.00 | 0.00 | 26 | 1015.3 |
| 20260507215728 | 19 | 242 | 1.6 | 3.2 | 0.00 | 0.00 | 0.00 | 27 | 1015.1 |
| 20260507215226 | 19 | 212 | 9.7 | 12.9 | 0.00 | 0.00 | 0.00 | 27 | 1015.4 |
| 20260507214723 | 20 | 258 | 4.8 | 9.7 | 0.00 | 0.00 | 0.00 | 26 | 1015.3 |
| 20260507214220 | 20 | 250 | 11.3 | 14.5 | 0.00 | 0.00 | 0.00 | 25 | 1015.9 |
| 20260507213716 | 20 | 221 | 4.8 | 8.0 | 0.00 | 0.00 | 0.00 | 26 | 1015.6 |
| 20260507213213 | 19 | 220 | 1.6 | 3.2 | 0.00 | 0.00 | 0.00 | 28 | 1015.5 |
| 20260507212709 | 19 | 266 | 1.6 | 3.2 | 0.00 | 0.00 | 0.00 | 27 | 1015.9 |
| 20260507212206 | 20 | 227 | 9.7 | 16.1 | 0.00 | 0.00 | 0.00 | 26 | 1015.7 |
| 20260507211703 | 19 | 237 | 8.0 | 9.7 | 0.00 | 0.00 | 0.00 | 25 | 1015.9 |
| 20260507211158 | 20 | 176 | 4.8 | 4.8 | 0.00 | 0.00 | 0.00 | 26 | 1015.9 |
| 20260507210656 | 20 | 273 | 11.3 | 12.9 | 0.00 | 0.00 | 0.00 | 25 | 1015.7 |
| 20260507210152 | 20 | 153 | 6.4 | 9.7 | 0.00 | 0.00 | 0.00 | 24 | 1015.9 |
| 20260507205649 | 20 | 184 | 11.3 | 14.5 | 0.00 | 0.00 | 0.00 | 24 | 1016.0 |
| 20260507205146 | 20 | 196 | 11.3 | 17.7 | 0.00 | 0.00 | 0.00 | 25 | 1015.9 |
| 20260507204642 | 20 | 257 | 8.0 | 9.7 | 0.00 | 0.00 | 0.00 | 27 | 1016.3 |
| 20260507204140 | 20 | 217 | 11.3 | 14.5 | 0.00 | 0.00 | 0.00 | 27 | 1016.0 |
| 20260507203637 | 20 | 167 | 6.4 | 8.0 | 0.00 | 0.00 | 0.00 | 25 | 1016.3 |
| 20260507203135 | 19 | 263 | 4.8 | 8.0 | 0.00 | 0.00 | 0.00 | 27 | 1016.0 |
| 20260507202630 | 20 | 298 | 8.0 | 14.5 | 0.00 | 0.00 | 0.00 | 26 | 1016.2 |
| 20260507202127 | 20 | 217 | 6.4 | 8.0 | 0.00 | 0.00 | 0.00 | 27 | 1016.4 |
| 20260507201622 | 20 | 262 | 4.8 | 8.0 | 0.00 | 0.00 | 0.00 | 28 | 1016.3 |
| 20260507201119 | 19 | 223 | 4.8 | 4.8 | 0.00 | 0.00 | 0.00 | 27 | 1016.4 |
| 20260507200615 | 19 | 262 | 4.8 | 4.8 | 0.00 | 0.00 | 0.00 | 29 | 1016.7 |
| 20260507200111 | 18 | 237 | 4.8 | 4.8 | 0.00 | 0.00 | 0.00 | 29 | 1016.9 |
| 20260507195608 | 20 | 167 | 3.2 | 4.8 | 0.00 | 0.00 | 0.00 | 28 | 1017.0 |
| 20260507195106 | 19 | 258 | 3.2 | 4.8 | 0.00 | 0.00 | 0.00 | 30 | 1017.0 |
| 20260507194602 | 19 | 268 | 6.4 | 11.3 | 0.00 | 0.00 | 0.00 | 30 | 1016.9 |
| 20260507194057 | 18 | 227 | 6.4 | 8.0 | 0.00 | 0.00 | 0.00 | 31 | 1016.9 |
| 20260507193555 | 19 | 181 | 9.7 | 14.5 | 0.00 | 0.00 | 0.00 | 31 | 1017.0 |
| 20260507193052 | 18 | 257 | 1.6 | 1.6 | 0.00 | 0.00 | 0.00 | 30 | 1017.2 |
| 20260507192548 | 18 | 161 | 3.2 | 3.2 | 0.00 | 0.00 | 0.00 | 31 | 1017.4 |
| 20260507192045 | 18 | 167 | 4.8 | 8.0 | 0.00 | 0.00 | 0.00 | 30 | 1017.3 |
| 20260507191540 | 18 | 272 | 0.0 | 1.6 | 0.00 | 0.00 | 0.00 | 30 | 1017.4 |
| 20260507191038 | 18 | 259 | 3.2 | 3.2 | 0.00 | 0.00 | 0.00 | 30 | 1017.3 |
| 20260507190535 | 18 | 150 | 4.8 | 4.8 | 0.00 | 0.00 | 0.00 | 29 | 1017.2 |
| 20260507190034 | 18 | 168 | 3.2 | 4.8 | 0.00 | 0.00 | 0.00 | 29 | 1017.5 |
| 20260507185531 | 18 | 259 | 0.0 | 1.6 | 0.00 | 0.00 | 0.00 | 32 | 1017.6 |
| 20260507185028 | 18 | 271 | 3.2 | 3.2 | 0.00 | 0.00 | 0.00 | 33 | 1017.3 |
| 20260507184526 | 18 | 184 | 6.4 | 8.0 | 0.00 | 0.00 | 0.00 | 33 | 1017.2 |
| 20260507184024 | 18 | 279 | 8.0 | 11.3 | 0.00 | 0.00 | 0.00 | 31 | 1017.4 |
| 20260507183519 | 18 | 260 | 4.8 | 4.8 | 0.00 | 0.00 | 0.00 | 30 | 1017.3 |
| 20260507183017 | 18 | 242 | 4.8 | 8.0 | 0.00 | 0.00 | 0.00 | 30 | 1017.4 |
| 20260507182513 | 18 | 140 | 3.2 | 3.2 | 0.00 | 0.00 | 0.00 | 31 | 1017.6 |
| 20260507182008 | 18 | 261 | 6.4 | 11.3 | 0.00 | 0.00 | 0.00 | 32 | 1017.5 |
| 20260507181506 | 17 | 261 | 1.6 | 1.6 | 0.00 | 0.00 | 0.00 | 35 | 1017.5 |
| 20260507181002 | 17 | 285 | 3.2 | 3.2 | 0.00 | 0.00 | 0.00 | 34 | 1017.7 |
| 20260507180458 | 17 | 244 | 1.6 | 3.2 | 0.00 | 0.00 | 0.00 | 35 | 1017.7 |
| 20260507175954 | 17 | 188 | 4.8 | 4.8 | 0.00 | 0.00 | 0.00 | 35 | 1017.6 |
| 20260507175452 | 17 | 255 | 1.6 | 1.6 | 0.00 | 0.00 | 0.00 | 34 | 1017.6 |
| 20260507174949 | 17 | 237 | 4.8 | 4.8 | 0.00 | 0.00 | 0.00 | 35 | 1017.9 |
| 20260507174446 | 17 | 231 | 8.0 | 11.3 | 0.00 | 0.00 | 0.00 | 34 | 1017.7 |
| 20260507173943 | 17 | 230 | 6.4 | 9.7 | 0.00 | 0.00 | 0.00 | 34 | 1017.6 |
| 20260507173440 | 16 | 242 | 1.6 | 3.2 | 0.00 | 0.00 | 0.00 | 36 | 1017.9 |
| 20260507172937 | 16 | 233 | 3.2 | 4.8 | 0.00 | 0.00 | 0.00 | 36 | 1018.0 |
| 20260507172434 | 16 | 120 | 1.6 | 3.2 | 0.00 | 0.00 | 0.00 | 37 | 1018.0 |
| 20260507171930 | 15 | 248 | 0.0 | 1.6 | 0.00 | 0.00 | 0.00 | 37 | 1018.0 |
| 20260507171426 | 15 | 267 | 1.6 | 1.6 | 0.00 | 0.00 | 0.00 | 37 | 1018.1 |
| 20260507170924 | 15 | 126 | 4.8 | 8.0 | 0.00 | 0.00 | 0.00 | 36 | 1018.2 |
| 20260507170420 | 15 | 127 | 4.8 | 8.0 | 0.00 | 0.00 | 0.00 | 37 | 1018.2 |
| 20260507165917 | 15 | 137 | 1.6 | 1.6 | 0.00 | 0.00 | 0.00 | 36 | 1018.1 |
| 20260507165413 | 15 | 167 | 4.8 | 4.8 | 0.00 | 0.00 | 0.00 | 36 | 1018.5 |
| 20260507164908 | 15 | 105 | 8.0 | 16.1 | 0.00 | 0.00 | 0.00 | 37 | 1018.6 |
| 20260507164406 | 14 | 207 | 3.2 | 3.2 | 0.00 | 0.00 | 0.00 | 38 | 1018.6 |
| 20260507163903 | 14 | 235 | 1.6 | 1.6 | 0.00 | 0.00 | 0.00 | 39 | 1018.3 |
| 20260507163400 | 13 | 50 | 3.2 | 4.8 | 0.00 | 0.00 | 0.00 | 40 | 1018.5 |
| 20260507162857 | 13 | 148 | 4.8 | 8.0 | 0.00 | 0.00 | 0.00 | 40 | 1018.6 |
| 20260507162352 | 13 | 118 | 4.8 | 8.0 | 0.00 | 0.00 | 0.00 | 39 | 1018.2 |
| 20260507161850 | 13 | 232 | 1.6 | 3.2 | 0.00 | 0.00 | 0.00 | 41 | 1018.6 |
| 20260507161346 | 13 | 240 | 3.2 | 4.8 | 0.00 | 0.00 | 0.00 | 40 | 1018.8 |
| 20260507160843 | 13 | 235 | 4.8 | 4.8 | 0.00 | 0.00 | 0.00 | 41 | 1018.6 |
| 20260507160338 | 13 | 220 | 1.6 | 3.2 | 0.00 | 0.00 | 0.00 | 41 | 1018.9 |
| 20260507155835 | 12 | 165 | 3.2 | 8.0 | 0.00 | 0.00 | 0.00 | 41 | 1018.9 |
| 20260507155330 | 12 | 263 | 3.2 | 3.2 | 0.00 | 0.00 | 0.00 | 41 | 1018.8 |
| 20260507154827 | 12 | 193 | 1.6 | 1.6 | 0.00 | 0.00 | 0.00 | 40 | 1019.0 |
| 20260507154325 | 12 | 86 | 3.2 | 4.8 | 0.00 | 0.00 | 0.00 | 41 | 1018.7 |
| 20260507153821 | 12 | 234 | 3.2 | 3.2 | 0.00 | 0.00 | 0.00 | 41 | 1018.8 |
| 20260507153318 | 12 | 125 | 1.6 | 1.6 | 0.00 | 0.00 | 0.00 | 41 | 1018.8 |
| 20260507152815 | 12 | 216 | 1.6 | 1.6 | 0.00 | 0.00 | 0.00 | 41 | 1019.0 |
| 20260507152311 | 12 | 182 | 3.2 | 3.2 | 0.00 | 0.00 | 0.00 | 40 | 1019.0 |
| 20260507151807 | 12 | 296 | 1.6 | 1.6 | 0.00 | 0.00 | 0.00 | 41 | 1018.7 |
| 20260507151303 | 11 | 101 | 6.4 | 9.7 | 0.00 | 0.00 | 0.00 | 41 | 1018.8 |
| 20260507150800 | 11 | 143 | 4.8 | 8.0 | 0.00 | 0.00 | 0.00 | 41 | 1018.9 |
| 20260507150257 | 11 | 296 | 1.6 | 3.2 | 0.00 | 0.00 | 0.00 | 42 | 1018.8 |
| 20260507145753 | 11 | 115 | 3.2 | 8.0 | 0.00 | 0.00 | 0.00 | 42 | 1018.9 |
| 20260507145249 | 10 | 223 | 1.6 | 1.6 | 0.00 | 0.00 | 0.00 | 43 | 1019.0 |
| 20260507144747 | 10 | 88 | 6.4 | 11.3 | 0.00 | 0.00 | 0.00 | 43 | 1019.3 |
| 20260507144244 | 10 | 53 | 3.2 | 4.8 | 0.00 | 0.00 | 0.00 | 44 | 1018.9 |
| 20260507143740 | 10 | 250 | 1.6 | 1.6 | 0.00 | 0.00 | 0.00 | 45 | 1019.3 |
| 20260507143238 | 9 | 115 | 3.2 | 3.2 | 0.00 | 0.00 | 0.00 | 44 | 1019.0 |
| 20260507142734 | 9 | 53 | 4.8 | 8.0 | 0.00 | 0.00 | 0.00 | 45 | 1019.3 |
| 20260507142230 | 8 | 247 | 1.6 | 1.6 | 0.00 | 0.00 | 0.00 | 46 | 1018.9 |
| 20260507141727 | 8 | 244 | 4.8 | 8.0 | 0.00 | 0.00 | 0.00 | 46 | 1018.9 |
| 20260507141224 | 8 | 148 | 3.2 | 4.8 | 0.00 | 0.00 | 0.00 | 46 | 1019.0 |
| 20260507140720 | 8 | 100 | 1.6 | 3.2 | 0.00 | 0.00 | 0.00 | 47 | 1018.9 |
| 20260507140218 | 7 | 206 | 1.6 | 1.6 | 0.00 | 0.00 | 0.00 | 47 | 1019.0 |
| 20260507135714 | 7 | 234 | 1.6 | 3.2 | 0.00 | 0.00 | 0.00 | 49 | 1018.9 |
| 20260507135212 | 7 | 226 | 3.2 | 3.2 | 0.00 | 0.00 | 0.00 | 50 | 1019.0 |
| 20260507134708 | 6 | 203 | 1.6 | 1.6 | 0.00 | 0.00 | 0.00 | 49 | 1019.2 |
| 20260507134204 | 6 | 125 | 6.4 | 9.7 | 0.00 | 0.00 | 0.00 | 50 | 1019.2 |
| 20260507133700 | 6 | 82 | 6.4 | 8.0 | 0.00 | 0.00 | 0.00 | 51 | 1019.0 |
| 20260507133158 | 6 | 226 | 3.2 | 3.2 | 0.00 | 0.00 | 0.00 | 51 | 1019.2 |
| 20260507132655 | 6 | 134 | 3.2 | 3.2 | 0.00 | 0.00 | 0.00 | 51 | 1019.0 |
| 20260507132151 | 5 | 146 | 3.2 | 3.2 | 0.00 | 0.00 | 0.00 | 52 | 1019.0 |
| 20260507131648 | 5 | 222 | 1.6 | 1.6 | 0.00 | 0.00 | 0.00 | 52 | 1018.8 |
| 20260507131146 | 5 | 167 | 3.2 | 4.8 | 0.00 | 0.00 | 0.00 | 52 | 1018.8 |
| 20260507130642 | 5 | 229 | 1.6 | 3.2 | 0.00 | 0.00 | 0.00 | 52 | 1018.7 |
| 20260507130140 | 5 | 246 | 1.6 | 3.2 | 0.00 | 0.00 | 0.00 | 53 | 1018.8 |
| 20260507125639 | 4 | 221 | 3.2 | 3.2 | 0.00 | 0.00 | 0.00 | 54 | 1018.8 |
| 20260507125136 | 3 | 248 | 0.0 | 0.0 | 0.00 | 0.00 | 0.00 | 56 | 1018.7 |
| 20260507124631 | 3 | 244 | 1.6 | 3.2 | 0.00 | 0.00 | 0.00 | 57 | 1018.3 |
| 20260507124130 | 3 | 115 | 3.2 | 3.2 | 0.00 | 0.00 | 0.00 | 58 | 1018.5 |
| 20260507123628 | 3 | 211 | 1.6 | 1.6 | 0.00 | 0.00 | 0.00 | 59 | 1018.7 |
| 20260507123124 | 3 | 234 | 0.0 | 0.0 | 0.00 | 0.00 | 0.00 | 58 | 1018.7 |
| 20260507122620 | 3 | 226 | 1.6 | 1.6 | 0.00 | 0.00 | 0.00 | 58 | 1018.6 |
| 20260507122115 | 3 | 263 | 1.6 | 4.8 | 0.00 | 0.00 | 0.00 | 58 | 1018.2 |
| 20260507121612 | 3 | 264 | 0.0 | 1.6 | 0.00 | 0.00 | 0.00 | 58 | 1018.3 |
| 20260507121108 | 2 | 208 | 1.6 | 3.2 | 0.00 | 0.00 | 0.00 | 58 | 1018.3 |
| 20260507120604 | 2 | 90 | 3.2 | 3.2 | 0.00 | 0.00 | 0.00 | 58 | 1018.3 |
| 20260507120101 | 2 | 254 | 0.0 | 0.0 | 0.00 | 0.00 | 0.00 | 58 | 1018.3 |
| 20260507115557 | 2 | 267 | 0.0 | 0.0 | 0.00 | 0.00 | 0.00 | 59 | 1018.5 |
| 20260507115053 | 2 | 94 | 3.2 | 3.2 | 0.00 | 0.00 | 0.00 | 59 | 1018.3 |
| 20260507114549 | 2 | 210 | 3.2 | 4.8 | 0.00 | 0.00 | 0.00 | 59 | 1018.2 |
| 20260507114047 | 2 | 99 | 3.2 | 4.8 | 0.00 | 0.00 | 0.00 | 59 | 1018.1 |
| 20260507113543 | 2 | 217 | 0.0 | 1.6 | 0.00 | 0.00 | 0.00 | 58 | 1018.3 |
| 20260507113041 | 2 | 240 | 1.6 | 3.2 | 0.00 | 0.00 | 0.00 | 58 | 1018.1 |
| 20260507112538 | 2 | 248 | 1.6 | 1.6 | 0.00 | 0.00 | 0.00 | 58 | 1018.2 |
| 20260507112035 | 3 | 120 | 1.6 | 3.2 | 0.00 | 0.00 | 0.00 | 57 | 1018.3 |
| 20260507111532 | 3 | 242 | 0.0 | 0.0 | 0.00 | 0.00 | 0.00 | 58 | 1018.3 |
| 20260507111029 | 3 | 242 | 1.6 | 1.6 | 0.00 | 0.00 | 0.00 | 57 | 1018.0 |
| 20260507110525 | 3 | 238 | 1.6 | 1.6 | 0.00 | 0.00 | 0.00 | 57 | 1018.0 |
| 20260507110021 | 3 | 228 | 0.0 | 1.6 | 0.00 | 0.00 | 0.00 | 57 | 1018.3 |
| 20260507105519 | 2 | 210 | 1.6 | 1.6 | 0.00 | 0.00 | 0.00 | 59 | 1018.2 |